CZ-3B DEB, 40165

Orbit data source: Space-Track

CZ-3B DEB, 40165 is space debris in HEO originally from a launch on Sat, 04 Sep 2010 UTC launched from the Xichang Space Center, China (XSC). Debris objects in space refer to the collection of defunct objects orbiting the Earth. Examples of debris include non-operational satellites, rocket bodies, and fragments generated from explosions, collisions, or faulty payload assembly.

Loading next visibility...
Identifier
40165, 2010-042S
Orbit
HEO
Country
Flag of CNCN / PRC
Related business
Manufacturer
CALT
Mission
Spacecraft
Bus & Motor
Unknown
Mass
Unknown
Launch date (UTC)
2010-09-04 (16 years ago)
Launch vehicle
Unknown
Launch site
Xichang Space Center, China (XSC)
Object type
Payload
Rocket body
Debris
Shape & HBR
Unknown shape, 0.2 m
Radar Cross Section
Medium (>0.1 m² and <1 m²)

Expand to show TLE details & history
Last TLE update: 6 days ago

TLE from 6 days ago
0 CZ-3B DEB
1 40165U 10042S   26114.23237067  .00000070  00000-0  85555-3 0  9995
2 40165  27.5624 126.9531 7371412 163.3081 288.2473  1.92966989102824
Epoch: 2026-04-24T05:34Z
TLE epoch observation values (Epoch: 2026-04-24T05:34:36.825Z)
Latitude
6.03815°
Longitude
-157.21085°
Altitude
28,090.965 km
Speed
2.916 km/s
True Right ascension
09h 14m 50s
True Declination
6° 01' 51"
Sunlit
Object was in daylight at epoch
Visualization orbit readout
Latitude
Unknown
Longitude
Unknown
Altitude
Unknown
Speed
Unknown
Apparent Right ascension
Unknown
Apparent Declination
Unknown
Sunlit
N/A
Visualization observer readout
Local Sidereal Time
00:54:44
Azimuth
Unknown
Elevation
Unknown
Doppler factor
Unknown
Orbital elements
Apogee altitude
40,970.252 km
Perigee altitude
786.474 km
Semi-major axis
27,256.5 km
Eccentricity
0.73714
Inclination
27.5624°
RAAN
126.9531°
Arg. of periapsis
163.3081°
True anomaly
209.8587°
Mean anomaly
288.2473°
Eccentric anomaly
248.8557°
Mean motion
0.48232 °/min
Orbital period
746.39 mins
BSTAR
0.00085555
Loading maneuver chart data...
Computing Atmospheric mass density...
Loading historical data...
Loading historical data...
Loading historical data...
Loading historical data...
Loading historical data...
Loading historical data...
Loading historical data...

Documentation

Showing up to 5 results
|